When you browse on this site, cookies collect data to enhance your experience and personalize the content and advertising you see.
Visit our Privacy Policy to learn more. By continuing to use the site, you agree to this use of cookies and data.
  • In Portugal
  • List of Countries
  • For 7 days
  • Water Temperature
  • Satellite Maps
  • Weather Map
  • Weather Widgets
  • user-avatar
    Login

    Hourly Weather Lugiele

    Today, 27 May, Monday

    Time Temperature Precipitation Wind Pressure Humidity
    00:00 +12°C° 0 mm 5 mps 735 mmHg 80%
    01:00 +12°C° 0 mm 5 mps 735 mmHg 82%
    02:00 +12°C° 0 mm 4 mps 735 mmHg 84%
    03:00 +12°C° 0 mm 5 mps 735 mmHg 86%
    04:00 +10°C° 0 mm 5 mps 734 mmHg 88%
    05:00 +10°C° 0 mm 5 mps 734 mmHg 90%
    06:00 +13°C° 0 mm 5 mps 734 mmHg 85%
    07:00 +15°C° 0 mm 6 mps 734 mmHg 80%
    08:00 +16°C° 0 mm 7 mps 734 mmHg 75%
    09:00 +17°C° 0.1 mm 7 mps 735 mmHg 74%
    10:00 +18°C° 0.1 mm 7 mps 735 mmHg 72%
    11:00 +20°C° 0.1 mm 7 mps 735 mmHg 71%
    12:00 +20°C° 0.4 mm 7 mps 735 mmHg 70%
    13:00 +21°C° 0.4 mm 7 mps 735 mmHg 68%
    14:00 +21°C° 0.4 mm 7 mps 735 mmHg 67%
    15:00 +21°C° 0.8 mm 6 mps 735 mmHg 71%
    16:00 +20°C° 0.8 mm 5 mps 735 mmHg 76%
    17:00 +19°C° 0.8 mm 4 mps 735 mmHg 81%
    18:00 +18°C° 0.4 mm 3 mps 735 mmHg 84%
    19:00 +17°C° 0.4 mm 2 mps 735 mmHg 87%
    20:00 +18°C° 0.4 mm 1 mps 735 mmHg 90%
    21:00 +16°C° 0 mm 1 mps 735 mmHg 91%
    22:00 +14°C° 0 mm 1 mps 735 mmHg 93%
    23:00 +13°C° 0 mm 1 mps 735 mmHg 95%

    Tomorrow, 28 May, Tuesday

    Time Temperature Precipitation Wind Pressure Humidity
    00:00 +13°C° 0 mm 1 mps 735 mmHg 96%
    01:00 +13°C° 0 mm 2 mps 735 mmHg 96%
    02:00 +12°C° 0 mm 2 mps 735 mmHg 97%
    03:00 +13°C° 0.1 mm 2 mps 734 mmHg 97%
    04:00 +13°C° 0.1 mm 2 mps 734 mmHg 97%
    05:00 +13°C° 0.1 mm 2 mps 734 mmHg 97%
    06:00 +14°C° 1.4 mm 2 mps 733 mmHg 97%
    07:00 +14°C° 1.4 mm 3 mps 733 mmHg 97%
    08:00 +14°C° 1.4 mm 3 mps 733 mmHg 97%
    09:00 +16°C° 1.6 mm 3 mps 732 mmHg 95%
    10:00 +17°C° 1.6 mm 4 mps 732 mmHg 93%
    11:00 +18°C° 1.6 mm 4 mps 732 mmHg 91%
    12:00 +19°C° 0.3 mm 5 mps 732 mmHg 86%
    13:00 +21°C° 0.3 mm 5 mps 732 mmHg 81%
    14:00 +22°C° 0.3 mm 6 mps 731 mmHg 76%
    15:00 +22°C° 0.8 mm 5 mps 732 mmHg 79%
    16:00 +21°C° 0.8 mm 5 mps 732 mmHg 82%
    17:00 +20°C° 0.8 mm 5 mps 732 mmHg 85%
    18:00 +19°C° 1.2 mm 4 mps 732 mmHg 88%
    19:00 +18°C° 1.2 mm 3 mps 732 mmHg 92%
    20:00 +16°C° 1.2 mm 3 mps 732 mmHg 96%
    21:00 +14°C° 0.4 mm 3 mps 733 mmHg 96%
    22:00 +13°C° 0.4 mm 3 mps 733 mmHg 96%
    23:00 +12°C° 0.4 mm 4 mps 733 mmHg 97%

    Day after tomorrow, 29 May, Wednesday

    Time Temperature Precipitation Wind Pressure Humidity
    00:00 +11°C° 0.3 mm 4 mps 733 mmHg 96%
    01:00 +10°C° 0.3 mm 4 mps 734 mmHg 96%
    02:00 +10°C° 0.3 mm 4 mps 734 mmHg 96%
    03:00 +8°C° 0.7 mm 4 mps 734 mmHg 96%
    04:00 +8°C° 0.7 mm 5 mps 734 mmHg 95%
    05:00 +8°C° 0.7 mm 5 mps 735 mmHg 95%
    06:00 +8°C° 0.1 mm 4 mps 735 mmHg 94%
    07:00 +7°C° 0.1 mm 4 mps 736 mmHg 93%
    08:00 +7°C° 0.1 mm 4 mps 736 mmHg 92%
    09:00 +8°C° 0 mm 4 mps 737 mmHg 88%
    10:00 +11°C° 0 mm 4 mps 738 mmHg 83%
    11:00 +12°C° 0 mm 4 mps 738 mmHg 79%
    12:00 +13°C° 0 mm 4 mps 739 mmHg 74%
    13:00 +14°C° 0 mm 4 mps 739 mmHg 70%
    14:00 +17°C° 0 mm 4 mps 739 mmHg 66%
    15:00 +15°C° 0 mm 5 mps 740 mmHg 66%
    16:00 +15°C° 0 mm 5 mps 740 mmHg 66%
    17:00 +14°C° 0 mm 5 mps 740 mmHg 66%
    18:00 +12°C° 0 mm 5 mps 740 mmHg 70%
    19:00 +11°C° 0 mm 4 mps 740 mmHg 74%
    20:00 +8°C° 0 mm 4 mps 741 mmHg 77%
    21:00 +7°C° 0 mm 4 mps 741 mmHg 79%
    22:00 +7°C° 0 mm 3 mps 741 mmHg 81%
    23:00 +4°C° 0 mm 3 mps 742 mmHg 83%

    30 May, Thursday

    Time Temperature Precipitation Wind Pressure Humidity
    00:00 +4°C° 0 mm 3 mps 742 mmHg 84%
    01:00 +4°C° 0 mm 3 mps 742 mmHg 85%
    02:00 +3°C° 0 mm 3 mps 742 mmHg 86%
    03:00 +3°C° 0 mm 3 mps 742 mmHg 87%
    04:00 +4°C° 0 mm 2 mps 742 mmHg 87%
    05:00 +4°C° 0 mm 2 mps 742 mmHg 88%
    06:00 +6°C° 0 mm 2 mps 742 mmHg 82%
    07:00 +8°C° 0 mm 2 mps 743 mmHg 76%
    08:00 +10°C° 0 mm 2 mps 743 mmHg 70%
    09:00 +12°C° 0 mm 2 mps 743 mmHg 67%
    10:00 +14°C° 0 mm 2 mps 743 mmHg 64%
    11:00 +15°C° 0 mm 2 mps 743 mmHg 60%
    12:00 +16°C° 0 mm 2 mps 743 mmHg 58%
    13:00 +17°C° 0 mm 2 mps 743 mmHg 56%
    14:00 +19°C° 0 mm 1 mps 742 mmHg 53%
    15:00 +19°C° 0 mm 1 mps 742 mmHg 58%
    16:00 +18°C° 0 mm 1 mps 742 mmHg 62%
    17:00 +18°C° 0 mm 1 mps 742 mmHg 66%
    18:00 +16°C° 0 mm 1 mps 742 mmHg 69%
    19:00 +15°C° 0 mm 1 mps 742 mmHg 72%
    20:00 +14°C° 0 mm 1 mps 742 mmHg 75%
    21:00 +13°C° 0 mm 1 mps 742 mmHg 75%
    22:00 +12°C° 0 mm 1 mps 742 mmHg 75%
    23:00 +11°C° 0 mm 0 mps 742 mmHg 75%

    31 May, Friday

    Time Temperature Precipitation Wind Pressure Humidity
    00:00 +11°C° 0 mm 1 mps 742 mmHg 77%
    01:00 +10°C° 0 mm 1 mps 741 mmHg 78%
    02:00 +10°C° 0 mm 1 mps 741 mmHg 80%
    03:00 +10°C° 0 mm 1 mps 741 mmHg 80%
    04:00 +11°C° 0 mm 1 mps 740 mmHg 81%
    05:00 +11°C° 0 mm 1 mps 740 mmHg 81%
    06:00 +12°C° 0 mm 2 mps 740 mmHg 79%
    07:00 +14°C° 0 mm 2 mps 740 mmHg 78%
    08:00 +15°C° 0 mm 2 mps 740 mmHg 76%
    09:00 +17°C° 0 mm 3 mps 739 mmHg 73%
    10:00 +18°C° 0 mm 3 mps 739 mmHg 70%
    11:00 +19°C° 0 mm 4 mps 738 mmHg 67%
    12:00 +20°C° 0.1 mm 4 mps 738 mmHg 66%
    13:00 +20°C° 0.1 mm 4 mps 738 mmHg 65%
    14:00 +21°C° 0.1 mm 5 mps 737 mmHg 64%
    15:00 +21°C° 0 mm 4 mps 737 mmHg 64%
    16:00 +21°C° 0 mm 4 mps 737 mmHg 65%
    17:00 +21°C° 0 mm 4 mps 737 mmHg 65%
    18:00 +16°C° 0.1 mm 5 mps 738 mmHg 73%
    19:00 +11°C° 0.1 mm 7 mps 738 mmHg 80%
    20:00 +7°C° 0.1 mm 8 mps 739 mmHg 88%
    21:00 +6°C° 0 mm 8 mps 739 mmHg 86%
    22:00 +6°C° 0 mm 8 mps 740 mmHg 84%
    23:00 +5°C° 0 mm 7 mps 741 mmHg 81%

    1 June, Saturday

    Time Temperature Precipitation Wind Pressure Humidity
    00:00 +5°C° 0.1 mm 7 mps 741 mmHg 82%
    01:00 +5°C° 0.1 mm 6 mps 742 mmHg 82%
    02:00 +5°C° 0.1 mm 6 mps 742 mmHg 83%
    03:00 +4°C° 0 mm 6 mps 743 mmHg 85%
    04:00 +4°C° 0 mm 6 mps 743 mmHg 86%
    05:00 +4°C° 0 mm 6 mps 744 mmHg 88%
    06:00 +5°C° 0 mm 6 mps 744 mmHg 82%
    07:00 +7°C° 0 mm 6 mps 745 mmHg 77%
    08:00 +8°C° 0 mm 6 mps 745 mmHg 72%
    09:00 +9°C° 0 mm 6 mps 745 mmHg 68%
    10:00 +10°C° 0 mm 6 mps 746 mmHg 64%
    11:00 +13°C° 0 mm 6 mps 746 mmHg 60%
    12:00 +13°C° 0 mm 6 mps 746 mmHg 58%
    13:00 +12°C° 0 mm 7 mps 747 mmHg 56%
    14:00 +14°C° 0 mm 7 mps 747 mmHg 54%
    15:00 +12°C° 0 mm 7 mps 747 mmHg 55%
    16:00 +13°C° 0 mm 6 mps 747 mmHg 56%
    17:00 +13°C° 0 mm 6 mps 747 mmHg 57%
    18:00 +10°C° 0 mm 6 mps 748 mmHg 61%
    19:00 +9°C° 0 mm 5 mps 748 mmHg 66%
    20:00 +8°C° 0 mm 5 mps 748 mmHg 70%
    21:00 +7°C° 0 mm 4 mps 748 mmHg 73%
    22:00 +5°C° 0 mm 4 mps 749 mmHg 76%
    23:00 +4°C° 0 mm 3 mps 749 mmHg 79%
    Show more